When you browse on this site, cookies collect data to enhance your experience and personalize the content and advertising you see.
Visit our Privacy Policy to learn more. By continuing to use the site, you agree to this use of cookies and data.

Hourly Weather Mérida

Today, 24 September, Thursday

Time Temperature Precipitation Wind Pressure Humidity
00:00 +15°C° 0.1 mm 2 mps 593 mmHg 84%
01:00 +16°C° 0 mm 2 mps 593 mmHg 87%
02:00 +15°C° 0.1 mm 2 mps 593 mmHg 87%
03:00 +15°C° 0.1 mm 2 mps 592 mmHg 88%
04:00 +14°C° 0.1 mm 1 mps 592 mmHg 88%
05:00 +15°C° 0.4 mm 1 mps 593 mmHg 88%
06:00 +16°C° 0.4 mm 2 mps 593 mmHg 87%
07:00 +16°C° 0 mm 2 mps 594 mmHg 87%
08:00 +18°C° 0.3 mm 2 mps 595 mmHg 81%
09:00 +20°C° 0.3 mm 2 mps 596 mmHg 75%
10:00 +21°C° 0.3 mm 2 mps 597 mmHg 68%
11:00 +21°C° 1.1 mm 2 mps 596 mmHg 73%
12:00 +21°C° 1.1 mm 2 mps 595 mmHg 77%
13:00 +22°C° 1.1 mm 1 mps 595 mmHg 82%
14:00 +21°C° 1.4 mm 1 mps 594 mmHg 84%
15:00 +21°C° 1.4 mm 1 mps 594 mmHg 86%
16:00 +20°C° 1.4 mm 1 mps 593 mmHg 88%
17:00 +19°C° 1.1 mm 1 mps 593 mmHg 90%
18:00 +18°C° 1.1 mm 1 mps 593 mmHg 92%
19:00 +16°C° 1.1 mm 1 mps 593 mmHg 94%
20:00 +16°C° 0.5 mm 1 mps 594 mmHg 92%
21:00 +16°C° 0.5 mm 2 mps 594 mmHg 91%
22:00 +16°C° 0.5 mm 2 mps 594 mmHg 90%
23:00 +16°C° 0 mm 1 mps 594 mmHg 89%

Tomorrow, 25 September, Friday

Time Temperature Precipitation Wind Pressure Humidity
00:00 +15°C° 0 mm 1 mps 594 mmHg 89%
01:00 +15°C° 0 mm 1 mps 593 mmHg 88%
02:00 +15°C° 0 mm 1 mps 593 mmHg 88%
03:00 +14°C° 0 mm 2 mps 593 mmHg 87%
04:00 +14°C° 0 mm 2 mps 592 mmHg 87%
05:00 +15°C° 0 mm 2 mps 593 mmHg 85%
06:00 +16°C° 0 mm 2 mps 594 mmHg 83%
07:00 +17°C° 0 mm 2 mps 595 mmHg 82%
08:00 +19°C° 0 mm 2 mps 596 mmHg 73%
09:00 +20°C° 0 mm 2 mps 597 mmHg 63%
10:00 +23°C° 0 mm 2 mps 598 mmHg 54%
11:00 +23°C° 0.3 mm 2 mps 597 mmHg 57%
12:00 +23°C° 0.3 mm 2 mps 596 mmHg 59%
13:00 +23°C° 0.3 mm 2 mps 595 mmHg 61%
14:00 +21°C° 0.5 mm 2 mps 595 mmHg 66%
15:00 +20°C° 0.5 mm 2 mps 594 mmHg 71%
16:00 +21°C° 0.5 mm 1 mps 593 mmHg 76%
17:00 +19°C° 0.2 mm 1 mps 593 mmHg 80%
18:00 +17°C° 0.2 mm 2 mps 593 mmHg 84%
19:00 +15°C° 0.2 mm 2 mps 592 mmHg 89%
20:00 +15°C° 0 mm 2 mps 592 mmHg 85%
21:00 +14°C° 0 mm 2 mps 593 mmHg 82%
22:00 +14°C° 0 mm 2 mps 593 mmHg 79%
23:00 +14°C° 0 mm 2 mps 592 mmHg 78%

Day after tomorrow, 26 September, Saturday

Time Temperature Precipitation Wind Pressure Humidity
00:00 +14°C° 0 mm 2 mps 592 mmHg 78%
01:00 +14°C° 0 mm 2 mps 592 mmHg 77%
02:00 +14°C° 0 mm 2 mps 592 mmHg 75%
03:00 +14°C° 0 mm 2 mps 591 mmHg 73%
04:00 +14°C° 0 mm 2 mps 591 mmHg 72%
05:00 +15°C° 0 mm 2 mps 592 mmHg 70%
06:00 +16°C° 0 mm 2 mps 593 mmHg 69%
07:00 +17°C° 0 mm 2 mps 594 mmHg 68%
08:00 +19°C° 0 mm 2 mps 595 mmHg 64%
09:00 +20°C° 0 mm 2 mps 596 mmHg 60%
10:00 +23°C° 0 mm 2 mps 597 mmHg 56%
11:00 +21°C° 0.9 mm 2 mps 596 mmHg 64%
12:00 +21°C° 0.9 mm 2 mps 595 mmHg 72%
13:00 +21°C° 0.9 mm 1 mps 594 mmHg 80%
14:00 +21°C° 1.3 mm 1 mps 593 mmHg 82%
15:00 +20°C° 1.3 mm 1 mps 592 mmHg 85%
16:00 +20°C° 1.3 mm 1 mps 592 mmHg 87%
17:00 +19°C° 0.8 mm 1 mps 592 mmHg 89%
18:00 +16°C° 0.8 mm 1 mps 591 mmHg 91%
19:00 +15°C° 0.8 mm 1 mps 591 mmHg 93%
20:00 +15°C° 0.2 mm 1 mps 591 mmHg 92%
21:00 +15°C° 0.2 mm 2 mps 591 mmHg 91%
22:00 +15°C° 0.2 mm 2 mps 592 mmHg 91%
23:00 +15°C° 0.1 mm 2 mps 592 mmHg 90%

27 September, Sunday

Time Temperature Precipitation Wind Pressure Humidity
00:00 +14°C° 0.1 mm 2 mps 591 mmHg 89%
01:00 +14°C° 0.1 mm 1 mps 591 mmHg 88%
02:00 +14°C° 0 mm 2 mps 591 mmHg 87%
03:00 +14°C° 0 mm 2 mps 590 mmHg 85%
04:00 +13°C° 0 mm 2 mps 590 mmHg 83%
05:00 +14°C° 0 mm 2 mps 591 mmHg 80%
06:00 +16°C° 0 mm 1 mps 592 mmHg 77%
07:00 +18°C° 0 mm 1 mps 593 mmHg 74%
08:00 +18°C° 0 mm 2 mps 594 mmHg 69%
09:00 +20°C° 0 mm 2 mps 595 mmHg 63%
10:00 +23°C° 0 mm 2 mps 596 mmHg 58%
11:00 +21°C° 0.8 mm 2 mps 595 mmHg 65%
12:00 +21°C° 0.8 mm 2 mps 593 mmHg 73%
13:00 +20°C° 0.8 mm 2 mps 592 mmHg 80%
14:00 +21°C° 1.2 mm 1 mps 592 mmHg 83%
15:00 +20°C° 1.2 mm 1 mps 591 mmHg 85%
16:00 +20°C° 1.2 mm 1 mps 591 mmHg 87%
17:00 +18°C° 0.7 mm 1 mps 591 mmHg 89%
18:00 +16°C° 0.7 mm 1 mps 591 mmHg 91%
19:00 +15°C° 0.7 mm 1 mps 590 mmHg 92%
20:00 +15°C° 0.1 mm 1 mps 591 mmHg 90%
21:00 +14°C° 0.1 mm 1 mps 591 mmHg 87%
22:00 +14°C° 0.1 mm 1 mps 591 mmHg 84%
23:00 +14°C° 0 mm 2 mps 590 mmHg 84%

28 September, Monday

Time Temperature Precipitation Wind Pressure Humidity
00:00 +14°C° 0 mm 2 mps 590 mmHg 83%
01:00 +14°C° 0 mm 2 mps 590 mmHg 83%
02:00 +14°C° 0 mm 2 mps 590 mmHg 82%
03:00 +13°C° 0 mm 2 mps 590 mmHg 81%
04:00 +13°C° 0 mm 2 mps 590 mmHg 80%
05:00 +14°C° 0 mm 1 mps 590 mmHg 78%
06:00 +16°C° 0 mm 1 mps 591 mmHg 75%
07:00 +18°C° 0 mm 1 mps 592 mmHg 73%
08:00 +19°C° 0 mm 1 mps 593 mmHg 66%
09:00 +20°C° 0 mm 2 mps 594 mmHg 60%
10:00 +23°C° 0 mm 2 mps 595 mmHg 54%
11:00 +21°C° 0.5 mm 2 mps 594 mmHg 62%
12:00 +21°C° 0.5 mm 2 mps 593 mmHg 71%
13:00 +20°C° 0.5 mm 2 mps 592 mmHg 79%
14:00 +19°C° 1.5 mm 2 mps 592 mmHg 83%
15:00 +20°C° 1.5 mm 1 mps 591 mmHg 88%
16:00 +19°C° 1.5 mm 1 mps 590 mmHg 92%
17:00 +18°C° 1.1 mm 1 mps 590 mmHg 92%
18:00 +16°C° 1.1 mm 1 mps 591 mmHg 92%
19:00 +16°C° 1.1 mm 1 mps 591 mmHg 92%
20:00 +15°C° 0.1 mm 1 mps 591 mmHg 90%
21:00 +15°C° 0.1 mm 1 mps 591 mmHg 89%
22:00 +14°C° 0.1 mm 1 mps 591 mmHg 87%
23:00 +14°C° 0 mm 1 mps 591 mmHg 86%

29 September, Tuesday

Time Temperature Precipitation Wind Pressure Humidity
00:00 +14°C° 0 mm 1 mps 591 mmHg 85%
01:00 +14°C° 0 mm 1 mps 590 mmHg 84%
02:00 +14°C° 0.1 mm 1 mps 590 mmHg 85%
03:00 +15°C° 0.1 mm 1 mps 590 mmHg 85%
04:00 +15°C° 0.1 mm 1 mps 590 mmHg 86%
05:00 +15°C° 0 mm 1 mps 591 mmHg 84%
06:00 +16°C° 0 mm 1 mps 592 mmHg 83%
07:00 +18°C° 0 mm 1 mps 593 mmHg 81%
08:00 +18°C° 0.2 mm 2 mps 594 mmHg 79%
09:00 +19°C° 0.2 mm 2 mps 594 mmHg 76%
10:00 +20°C° 0.2 mm 2 mps 595 mmHg 74%
11:00 +20°C° 1.1 mm 2 mps 594 mmHg 79%
12:00 +19°C° 1.1 mm 2 mps 593 mmHg 84%
13:00 +19°C° 1.1 mm 1 mps 592 mmHg 90%
14:00 +19°C° 2 mm 1 mps 592 mmHg 90%
15:00 +18°C° 2 mm 1 mps 591 mmHg 91%
16:00 +18°C° 2 mm 1 mps 590 mmHg 91%
17:00 +16°C° 0.2 mm 2 mps 591 mmHg 90%
18:00 +16°C° 0.2 mm 2 mps 591 mmHg 90%
19:00 +15°C° 0.2 mm 2 mps 591 mmHg 89%
20:00 +15°C° 0 mm 2 mps 592 mmHg 88%
21:00 +15°C° 0 mm 2 mps 592 mmHg 87%
22:00 +15°C° 0 mm 2 mps 592 mmHg 85%
23:00 +15°C° 0 mm 2 mps 592 mmHg 86%
Show more